Miscellaneous Local Product
Issued by NWS North Platte, NE

Home | Current Version | Previous Version | Text Only | Print | Product List | Glossary On
Versions: 1 2 3 4 5 6 7 8 9 10 11 12 13 14 15 16 17 18 19 20 21 22 23 24 25 26 27 28 29 30 31 32 33 34 35 36 37 38 39 40 41 42 43 44 45 46 47 48 49 50
000
AXUS43 KLBF 220310
MISLBF


WESTERN AND NORTH CENTRAL NEBRASKA HOURLY WEATHER ROUNDUP
NATIONAL WEATHER SERVICE NORTH PLATTE NE
1000 PM CDT FRI JUL 21 2017

NOTE: "FAIR" INDICATES FEW OR NO CLOUDS BELOW 12,000 FEET WITH NO
SIGNIFICANT WEATHER AND/OR OBSTRUCTIONS TO VISIBILITY.

NOTE: STATIONS NOT REPORTING VARIABLES SUCH AS SKY/WEATHER OR
PRESSURE ARE PROVIDED BY RAWS AND APRS NETWORKS AND ARE NOT UNDER
NATIONAL WEATHER SERVICE QUALITY CONTROL.

...OBSERVATIONS IN AND NEAR THE EASTERN PANHANDLE OF NEBRASKA...

CITY           SKY/WX    TMP DP  RH WIND       PRES   REMARKS
PINE RIDGE     MOCLDY    75  60  59 E5        29.95R
GORDON         FAIR      75  64  70 W3        29.97R
CHADRON        CLOUDY    81  51  35 N3        29.95R
ALLIANCE       MOCLDY    77  53  43 NW6       29.98R
SIDNEY         MOCLDY    81  46  29 W8        30.07R
CRESCENT LAKE    N/A     83  48  29 N6          N/A
$$

...OBSERVATIONS IN NORTHERN NEBRASKA AND FAR SOUTHERN SOUTH DAKOTA...

CITY           SKY/WX    TMP DP  RH WIND       PRES   REMARKS
WINNER         FAIR      88  71  57 S10       29.80R HX  94
VALENTINE      CLEAR     83  56  39 NW6       29.86R
THEDFORD       CLOUDY    87  71  58 E9        29.91R HX  92
AINSWORTH      CLEAR     80  71  74 S5        29.87R
O`NEILL        CLOUDY    81  70  69 SW7       29.79F
ORD            CLOUDY    76  68  76 CALM      29.78R
BROKEN BOW     CLOUDY    79  66  64 VRB3      29.85R
VALENTINE NWR    N/A     85  69  58 CALM        N/A
HALSEY           N/A     87  69  54 E8          N/A  HX  91
BUTTE            N/A     80  75  86 SE8         N/A
CHAMBERS         N/A     78  64  62 CALM        N/A
EWING            N/A     77  71  83 CALM        N/A
$$

...OBSERVATIONS IN SOUTHWEST NEBRASKA AND FAR NORTHEAST COLORADO...

CITY           SKY/WX    TMP DP  RH WIND       PRES   REMARKS
HOLYOKE        FAIR      84  46  26 N8        29.96R
IMPERIAL       CLOUDY    76  51  41 N8        29.91R
OGALLALA       CLEAR     83  46  26 N8        29.93R
NORTH PLATTE   PTCLDY    81  58  45 W5        29.87R
MCCOOK         PTCLDY    90  63  40 W8        29.84R HX  91
LEXINGTON      PTCLDY    82  78  88 CALM      29.82S HX  92
STAPLETON        N/A     84  58  40 CALM        N/A
GOTHENBURG       N/A     93  64  37 NW3         N/A  HX  94
CALLAWAY         N/A     82  71  69 N3          N/A
$$

...OBSERVATIONS IN CENTRAL LINCOLN COUNTY AREA...

CITY           SKY/WX    TMP DP  RH WIND       PRES   REMARKS
N.P. AIRPORT   PTCLDY    81  58  45 W5        29.87R
N.P. DOWNTOWN    N/A     86  54  33 CALM        N/A
N.P. SOUTHEAST   N/A     88  53  29 N3          N/A
N.P. HILLCREST   N/A     85  53  32 N9          N/A
$$

...SOME OBSERVATIONS FROM AROUND THE REGION...

CITY           SKY/WX    TMP DP  RH WIND       PRES   REMARKS
DENVER         CLOUDY    67  56  67 CALM      30.20R
LIMON          TSTM      64  60  87 W15       30.25R
ASPEN          CLOUDY    62  53  72 E5        30.39R
LARAMIE        CLOUDY    57  51  80 E16       30.29F
CASPER         CLOUDY    78  43  28 CALM      30.07R
CHEYENNE       LGT RAIN  61  55  81 NW7       30.32S
SCOTTSBLUFF    CLOUDY    82  50  32 W13       30.02R
GRAND ISLAND   CLOUDY    82  73  74 N6        29.79R
OMAHA          CLOUDY    89  75  63 N3        29.71S HX  99
SIOUX FALLS    PTCLDY    79  76  90 E7        29.78R
PIERRE         CLEAR     86  66  51 NW12G20   29.74R
RAPID CITY     PTCLDY    75  45  34 N13       29.94R
BISMARCK       PTCLDY    80  68  66 SE14      29.75F THUNDER
KANSAS CITY    PTCLDY    87  74  64 S16       29.83R HX  95
HILL CITY      CLEAR     88  57  34 S6        29.83R
WICHITA        CLEAR     89  68  49 S14       29.83R HX  93
DODGE CITY     CLEAR     84  56  38 S7        29.88R
OKLAHOMA CITY  CLEAR     86  68  54 S10       29.91R
DALLAS         CLEAR     91  70  49 SE14      29.92R HX  96
AMARILLO       CLEAR     85  52  32 S13       30.01R
$$




USA.gov is the U.S. government's official web portal to all federal, state and local government web resources and services.